Location: Blanot
(47.1713°N, 4.2340°E)
Time: 13:55:55
(UTC+00:00)

Envisat - Visible Passes

Search period start: 25 February 2021 00:00
Search period end: 07 March 2021 00:00
Orbit: 764 x 766 km, 98.1° (Epoch: 24 February)

Date Brightness Start Highest point End Pass type
(mag) Time Alt. Az. Time Alt. Az. Time Alt. Az.
25 Feb 3.4 05:22:58 10° NNE 05:28:04 70° ESE 05:33:07 10° S visible
26 Feb 4.8 04:46:29 10° NNE 04:51:05 33° E 04:55:40 10° SSE visible
27 Feb 5.9 04:10:44 10° NE 04:13:54 16° E 04:17:03 10° SE visible
27 Feb 3.0 05:48:23 10° N 05:53:27 71° WNW 05:58:31 10° SSW visible
28 Feb 3.8 05:11:36 10° NNE 05:16:37 56° E 05:21:36 10° S visible
28 Feb 6.7 18:12:19 10° WSW 18:13:58 11° W 18:15:37 10° WNW visible
01 Mar 5.2 04:35:16 10° NE 04:39:35 27° E 04:43:52 10° SSE visible
02 Mar 6.1 04:00:01 10° ENE 04:02:19 13° E 04:04:38 10° ESE visible
02 Mar 3.0 05:36:56 10° NNE 05:42:03 88° WNW 05:47:08 10° SSW visible
03 Mar 4.2 05:00:16 10° NNE 05:05:08 45° E 05:10:00 10° S visible
03 Mar 6.4 17:59:37 10° WSW 18:02:23 15° W 18:05:10 10° NW visible
04 Mar 5.6 04:24:07 10° NE 04:28:03 22° E 04:31:56 10° SE visible
05 Mar 6.4 03:50:35 10° E 03:50:43 10° E 03:50:51 10° E visible
05 Mar 3.3 05:25:30 10° NNE 05:30:37 76° ESE 05:35:42 10° S visible
06 Mar 4.7 04:48:58 10° NNE 04:53:40 36° E 04:58:18 10° SSE visible
